Location: Krakow
(50.0830°N, 19.9170°E)
Time: 18:52:09
(UTC+01:00)

SR - Pass Details

Date: 10 February 2023
Orbit: 582 x 867 km, 66.7° (Epoch: 20 March)

Event Time Altitude Azimuth Distance (km) Brightness Sun altitude
Rises 18:21:20 0° 324° (NW) 2,916 ? -15.2°
Reaches altitude 10° 18:24:48 10° 352° (N) 1,962 ? -15.7°
Maximum altitude 18:26:58 13° 22° (NNE) 1,729 ? -16.1°
Enters shadow 18:27:36 13° 31° (NNE) 1,742 ? -16.2°
Drops below altitude 10° 18:29:05 10° 52° (NE) 1,923 - -16.4°
Sets 18:32:25 0° 80° (E) 2,808 - -16.9°
